Helicity
52 44 41 40 46 44 42 43 46 39 42 38 30 27 38 35 23 45 74 80 86 146 136 127 106 121 150 197 159 195 145 180 219 168 164 172 164 130 124 105 88 36 9 7 2 33 18 146 74 100 107 118 132 219
31 34 41 46 52 47 45 45 45 34 40 45 48 53 55 53 61 112 120 124 118 147 176 108 98 36 24 67 101 140 169 212 162 152 118 140 132 143 75 79 68 73 76 68 2 14 56 51 67 61 96 40 72 94
31 35 40 44 49 49 59 55 54 58 57 60 60 54 56 64 60 94 157 197 195 214 157 80 88 64 95 73 99 175 168 125 124 99 91 55 127 15 75 33 53 83 108 73 32 -4 -12 41 34 41 68 69 58 46
32 39 39 48 59 62 60 58 57 55 57 61 66 68 71 70 53 62 196 196 202 200 229 136 99 149 164 145 110 129 111 116 155 120 145 124 152 89 104 125 98 101 52 25 27 20 49 51 111 80 83 85 106 132
41 38 40 44 49 54 65 67 62 62 55 62 64 62 65 73 68 83 118 192 221 193 244 209 145 145 102 72 22 56 55 92 103 108 115 125 118 87 108 128 93 113 126 82 76 82 55 53 50 34 18 19 39 66
45 52 58 61 60 64 68 68 83 66 57 60 61 34 13 47 102 155 184 162 104 163 216 185 182 199 62 21 38 46 43 68 109 125 96 77 164 77 66 73 117 137 118 79 56 32 20 27 15 35 14 29 44 45
46 64 70 70 69 73 71 71 68 60 64 68 65 40 12 47 136 195 222 164 117 151 182 175 136 53 64 37 40 62 60 66 85 92 96 109 68 68 110 89 157 134 110 60 46 42 20 29 18 47 55 45 37 21
61 74 69 63 72 78 71 67 62 62 55 45 25 17 80 152 195 234 194 150 195 133 159 156 169 92 86 54 32 48 51 71 74 101 100 58 45 81 146 184 151 120 128 35 88 28 -1 33 22 18 20 26 48 43
73 76 66 60 75 79 76 61 45 37 28 35 74 172 156 150 121 124 62 90 113 122 184 163 139 79 45 46 47 49 48 55 80 79 93 71 121 137 133 152 121 75 56 56 88 34 38 41 46 44 35 38 40 53
83 87 72 69 83 86 77 72 55 47 36 163 139 126 118 113 94 95 124 116 85 79 113 89 109 71 54 68 57 35 32 21 36 49 38 92 115 81 81 50 28 25 28 30 26 54 104 94 97 104 82 54 48 58
83 76 71 74 79 100 77 73 69 65 93 88 110 133 160 115 132 126 80 35 50 38 48 56 68 69 87 73 68 50 35 26 27 39 45 56 64 54 48 18 10 6 2 -2 -15 -11 5 39 84 99 109 89 89 96
71 68 73 75 109 106 83 91 98 97 108 126 154 172 154 132 115 71 46 39 55 66 82 66 92 90 89 66 44 44 32 22 30 18 29 48 37 34 32 35 33 27 26 28 20 23 30 36 44 49 64 82 88 101
58 62 75 88 116 83 87 96 89 74 103 117 120 134 112 101 90 85 84 83 94 108 90 87 78 81 69 51 46 31 28 40 23 33 44 36 30 24 22 22 23 21 22 23 30 31 34 37 37 52 72 77 79 92
47 65 70 107 94 76 91 109 93 86 113 128 149 155 118 94 56 77 92 68 108 94 88 86 84 75 70 54 45 33 44 30 29 27 46 34 30 21 15 13 13 20 20 20 23 24 31 37 41 49 64 74 80 103
52 58 79 92 52 66 73 54 45 104 110 133 134 134 89 60 46 63 67 80 77 79 83 85 87 75 63 51 34 36 28 30 46 57 60 57 45 35 35 34 30 27 26 31 37 40 40 40 39 47 66 66 84 97
54 53 101 55 43 55 46 54 93 108 122 118 99 79 57 14 30 29 28 56 84 75 85 79 80 72 58 45 55 56 56 77 85 86 97 84 78 67 54 51 45 36 39 40 42 45 47 57 60 53 52 74 72 89
52 127 72 52 57 49 74 111 97 98 97 102 127 89 40 56 16 23 12 30 58 80 90 94 95 70 94 75 81 106 117 117 121 109 106 109 101 92 82 73 68 68 69 66 59 60 55 48 49 69 90 95 82 77
116 102 74 82 85 92 94 63 58 83 120 111 113 75 24 24 8 19 14 39 55 89 98 149 157 181 182 154 163 177 174 150 147 135 123 113 109 103 95 89 81 76 71 68 62 62 75 86 84 82 84 89 67 82
95 123 100 76 88 81 91 105 74 126 129 83 57 9 18 26 23 30 33 32 34 82 99 119 169 204 227 242 219 213 215 207 184 167 144 136 133 128 119 109 98 104 102 93 85 79 79 80 80 81 85 83 80 76
122 129 100 95 91 118 132 135 91 124 118 94 71 64 57 55 41 48 69 93 96 99 145 175 177 167 165 175 189 192 195 185 168 154 141 133 127 122 130 124 119 111 103 102 101 108 91 84 82 83 80 81 82 84
132 101 89 78 95 123 120 115 110 95 91 96 70 60 82 77 69 79 88 97 126 142 149 155 146 135 134 138 136 131 139 143 134 123 126 122 113 101 103 101 95 93 101 103 104 104 105 96 91 88 85 83 83 74
108 91 80 75 94 74 108 73 80 83 114 108 99 84 108 98 84 79 71 142 144 137 116 108 115 114 120 124 123 127 119 106 99 92 102 101 100 100 98 90 86 87 85 84 81 81 79 72 67 68 78 83 87 85
110 74 88 97 115 99 92 59 91 90 113 121 97 115 122 109 97 67 132 136 142 150 135 130 122 110 107 88 76 85 85 82 77 70 64 60 51 59 52 52 53 60 62 64 59 59 61 69 69 68 64 64 64 66
81 109 137 130 113 97 75 99 91 100 118 118 126 142 139 119 98 137 161 143 131 133 130 122 99 92 83 76 78 69 59 44 46 40 39 40 43 48 41 42 51 58 65 63 64 64 62 61 69 56 52 55 54 45
141 135 124 128 89 91 103 101 100 120 133 124 137 144 132 109 162 185 174 157 126 123 119 117 116 108 100 79 64 55 39 30 31 38 28 38 45 50 54 57 58 59 65 69 75 74 69 66 64 61 62 55 49 59
178 125 127 103 80 87 86 102 110 113 124 133 143 116 114 159 185 183 144 110 113 130 134 127 103 80 65 57 34 23 27 37 31 33 37 54 54 53 57 65 70 71 69 71 69 69 73 78 75 74 73 73 69 78
155 129 122 70 64 85 106 111 111 127 140 146 135 133 142 174 171 144 118 109 116 110 96 74 56 45 38 23 7 7 22 38 44 49 48 41 43 52 57 57 58 67 69 58 61 64 66 73 72 70 71 79 71 63
133 117 110 76 98 89 109 108 113 129 135 121 118 142 161 175 184 136 105 93 82 72 58 43 32 28 20 9 10 20 31 48 39 44 44 42 44 60 54 51 57 15 39 56 58 61 59 63 63 67 72 48 51 76
140 112 94 123 106 111 106 111 125 124 115 113 132 140 137 104 82 79 70 60 58 52 58 57 45 32 9 19 20 35 47 57 66 77 73 72 71 65 76 88 90 84 80 73 21 34 42 47 52 58 75 66 60 66
130 96 120 111 125 119 108 103 118 103 88 85 77 80 79 61 38 24 34 47 55 60 63 58 63 50 22 38 52 67 81 81 79 78 80 75 76 90 86 95 92 91 92 87 92 77 51 71 61 73 70 65 65 69
127 109 121 114 125 109 108 93 85 88 96 93 85 88 89 62 37 33 38 52 59 72 77 82 95 92 67 70 79 74 67 78 82 80 101 120 128 131 152 162 144 129 122 102 106 116 98 79 75 64 65 69 69 58
133 117 107 125 122 105 97 100 103 108 108 108 119 93 79 85 85 77 70 85 86 84 76 97 106 73 90 95 106 123 68 86 82 92 103 126 149 178 215 210 147 130 138 152 151 132 116 106 102 103 99 94 102 107
125 109 114 125 132 120 105 108 124 122 116 121 118 102 98 93 86 75 71 70 87 86 79 91 91 75 82 97 99 94 57 93 88 66 45 31 38 52 31 72 133 150 154 158 141 125 116 111 107 109 113 122 120 120
Wind_Speed
52 54 54 55 56 56 56 58 58 55 55 51 49 53 61 58 51 45 47 38 47 59 66 52 46 58 59 53 59 49 58 42 37 41 41 37 35 28 38 39 41 46 53 56 56 65 76 53 44 52 42 43 44 46
54 56 57 56 55 54 54 58 58 57 53 52 51 54 56 53 49 43 47 39 36 46 53 52 50 41 38 42 44 38 39 39 32 33 34 35 35 32 45 57 34 54 48 55 50 50 47 44 43 36 44 45 50 52
54 56 57 55 55 57 60 60 61 61 57 56 59 63 61 52 45 41 40 38 45 55 61 43 58 33 41 36 32 41 37 33 35 36 40 36 36 45 52 51 45 39 42 53 52 47 55 53 49 50 51 54 56 53
55 56 57 59 60 61 62 62 61 58 54 56 59 60 56 53 46 38 37 31 38 46 56 47 42 47 44 40 37 34 38 36 35 29 29 34 42 37 50 46 42 39 38 51 61 66 65 51 49 56 61 59 55 51
59 61 63 63 63 62 63 62 61 58 55 57 58 55 52 49 46 49 35 28 22 32 53 59 60 47 42 42 39 32 27 28 30 30 29 37 36 35 41 41 41 47 53 56 60 50 53 54 59 59 62 62 61 61
60 63 64 65 65 65 64 65 66 62 59 59 58 53 50 53 51 48 48 32 20 29 48 59 46 53 45 35 35 37 34 31 28 30 34 34 33 30 36 36 42 47 49 50 53 58 62 62 60 59 61 61 60 60
63 66 68 70 69 70 69 67 68 65 66 68 60 54 49 52 38 38 37 39 23 30 40 48 50 39 44 41 40 40 39 34 30 31 33 42 36 28 32 35 55 56 58 54 48 58 53 52 61 62 59 58 58 55
66 68 70 71 72 74 71 71 68 66 66 66 60 56 49 42 40 40 39 30 25 34 36 44 47 47 43 44 45 42 41 36 29 33 36 38 34 32 34 47 56 57 59 45 59 57 56 61 59 59 61 60 59 58
69 72 74 73 74 77 77 74 71 67 65 64 59 49 46 46 45 42 36 33 29 30 40 39 47 52 39 43 43 42 39 38 36 33 34 37 35 35 45 53 55 57 56 63 65 57 54 54 56 60 60 59 59 61
71 74 75 75 77 76 78 83 78 72 64 51 52 51 49 46 39 39 41 38 33 32 29 36 36 40 43 46 43 43 38 38 38 35 35 34 35 34 48 50 52 56 58 58 57 55 57 57 59 60 59 58 57 58
73 75 76 77 75 77 79 83 83 72 58 55 52 49 44 42 41 42 38 37 35 35 31 36 35 38 40 42 42 38 41 39 38 37 34 33 36 44 48 47 46 46 46 47 46 48 49 52 55 57 57 56 55 54
73 75 76 76 70 80 76 78 78 71 61 55 48 45 43 42 39 37 34 33 32 37 35 37 37 38 40 37 35 35 36 36 38 38 35 36 37 44 46 47 46 46 46 46 46 46 47 48 49 50 52 53 52 51
73 76 79 67 73 80 76 70 69 66 55 49 46 45 43 40 39 37 38 33 36 34 33 35 38 38 36 33 33 34 35 37 38 37 36 36 40 44 45 46 46 46 46 46 47 47 47 47 47 48 50 49 49 48
73 77 79 57 79 77 74 70 68 61 51 51 50 49 40 39 33 33 34 35 35 34 32 32 36 36 34 32 33 34 35 36 37 37 37 37 42 44 45 46 46 48 48 48 48 48 47 48 48 48 48 49 48 47
71 75 63 63 81 77 73 69 60 47 44 47 43 43 35 34 32 35 35 32 30 31 30 33 34 32 31 29 30 33 34 36 38 39 38 40 43 45 47 48 49 50 50 50 50 49 49 49 48 48 49 49 48 47
75 67 58 81 79 76 75 63 51 42 39 39 35 36 37 37 38 42 43 35 41 32 30 30 31 32 27 26 28 29 34 38 39 39 40 42 45 47 49 49 49 50 50 51 51 50 50 50 50 49 49 49 48 48
69 61 76 75 73 72 65 55 48 42 39 37 39 40 42 41 43 43 43 41 42 27 24 27 27 28 29 28 29 35 36 39 40 40 42 45 47 48 49 48 49 49 50 51 51 51 51 51 50 50 51 52 50 49
63 71 71 71 71 63 54 52 45 43 44 41 41 46 43 46 46 44 46 47 42 34 30 29 34 32 35 34 36 39 41 41 41 43 44 47 49 49 49 49 49 49 49 50 50 51 52 53 53 53 53 54 51 51
69 66 68 71 62 53 53 47 45 46 44 41 40 44 43 41 43 47 50 45 36 37 30 31 35 37 39 40 42 45 47 47 46 47 43 45 47 50 50 50 49 50 51 51 52 51 51 52 53 55 55 55 54 54
61 57 71 61 54 49 45 45 41 42 44 44 43 46 43 43 44 45 53 50 38 33 36 36 36 34 36 38 41 43 46 46 48 48 48 47 49 50 51 52 52 52 51 52 52 53 53 53 54 56 57 56 56 57
57 61 58 54 49 44 42 42 42 41 41 42 42 45 44 43 48 51 51 48 40 39 36 34 33 35 39 41 44 45 46 48 49 49 52 54 51 51 52 52 52 51 52 53 54 55 55 57 58 59 58 58 58 57
58 56 51 49 43 41 40 42 40 41 41 41 44 47 47 47 50 52 44 48 40 40 36 34 35 36 39 42 45 47 50 50 50 50 52 53 53 54 55 55 54 54 52 53 54 56 57 58 58 58 59 60 59 59
52 50 46 48 41 42 41 42 43 46 44 45 46 47 46 47 49 43 43 42 38 39 36 36 37 38 40 41 42 47 52 54 55 55 55 54 53 52 54 53 52 53 54 54 54 56 57 59 60 61 61 61 61 62
48 47 46 43 44 43 41 45 44 46 45 48 50 50 48 49 47 46 46 39 36 37 38 40 39 41 41 43 47 49 53 55 57 55 54 54 53 55 54 51 50 49 50 52 53 55 57 59 62 62 62 64 65 65
48 50 43 42 43 45 46 46 48 47 49 52 50 48 48 48 50 49 46 37 35 35 37 39 41 44 47 49 50 51 50 56 61 62 56 52 53 56 54 51 51 49 48 53 57 60 62 63 64 66 68 69 70 73
49 42 41 44 46 45 46 49 49 51 51 50 48 46 48 50 50 49 41 33 32 33 36 40 45 48 49 52 56 57 58 58 61 60 56 52 54 54 55 57 58 54 46 52 59 65 68 68 70 73 75 74 77 79
42 40 40 39 39 41 43 44 45 47 50 49 49 52 50 53 51 43 34 30 30 31 35 39 44 49 53 58 57 58 59 58 57 57 56 52 49 47 48 53 56 53 54 59 61 63 69 72 74 76 77 74 74 75
38 38 41 39 41 42 43 46 48 48 47 44 48 51 51 49 49 35 31 27 28 30 34 40 46 51 54 55 58 63 64 61 59 53 49 48 46 49 46 47 50 56 59 61 63 63 64 65 69 72 75 75 72 68
41 38 37 41 40 41 42 45 46 43 43 44 49 49 47 40 36 31 27 26 27 32 39 47 51 60 61 59 57 61 61 56 56 58 60 62 64 60 51 56 59 59 60 64 67 66 65 64 66 70 75 73 74 74
40 35 38 38 41 43 41 40 42 41 40 41 41 42 40 37 32 28 25 25 29 36 42 48 53 62 72 70 68 66 59 49 42 47 57 61 62 61 63 64 62 61 60 60 60 60 63 68 69 69 70 71 71 71
36 36 38 38 39 37 37 37 38 39 41 42 40 41 41 39 33 27 24 25 29 34 43 49 53 58 67 64 62 66 66 51 44 43 44 47 51 52 52 49 52 51 50 49 50 55 60 63 63 63 64 65 66 68
38 37 36 39 38 35 36 39 41 42 42 42 41 39 40 40 40 36 31 28 31 37 43 48 53 62 56 52 52 47 39 38 38 40 43 43 42 37 32 37 37 35 32 34 36 40 39 39 40 40 41 44 47 51
35 34 36 37 38 37 38 40 43 46 43 44 41 40 39 39 40 37 33 30 35 44 52 50 50 50 49 47 44 41 37 36 35 35 32 32 31 26 54 44 35 28 24 23 21 19 16 16 17 19 21 24 28 31
Wind_Direction
13 12 11 10 10 9 8 7 5 3 2 0 355 351 345 344 347 347 342 346 337 325 322 326 324 318 317 319 315 327 327 328 324 321 323 322 320 323 323 322 320 312 302 285 277 268 263 298 291 277 286 293 298 296
10 10 9 9 10 9 6 4 2 359 359 359 355 351 346 343 344 345 338 346 343 331 327 330 322 321 314 317 321 326 320 326 331 330 330 331 321 321 317 307 326 305 301 291 282 280 290 298 299 294 299 292 295 294
9 9 8 9 7 4 2 1 359 358 357 356 351 347 345 345 344 341 334 337 337 329 330 343 334 346 342 338 327 319 315 317 313 314 314 309 307 317 309 307 308 316 307 288 285 289 284 288 292 296 299 296 295 297
7 7 6 6 4 3 1 359 358 356 355 351 349 345 343 343 342 341 337 339 338 337 332 342 348 339 339 335 332 325 317 321 318 316 307 305 306 316 310 309 308 308 310 287 283 284 282 291 296 296 294 296 301 301
2 2 2 3 2 1 360 358 357 354 351 348 345 344 343 342 339 339 335 331 331 337 330 331 333 341 344 339 335 340 330 321 322 319 311 308 312 314 314 313 311 296 288 288 290 294 288 288 296 300 297 294 293 292
2 2 2 1 0 359 359 357 358 356 351 348 345 343 343 341 344 342 341 347 345 341 337 334 346 340 346 353 350 347 340 332 323 322 316 313 310 312 319 318 306 296 298 304 294 296 291 288 293 305 299 295 296 294
359 360 359 359 359 358 356 355 355 353 352 350 349 345 343 344 347 345 344 352 7 0 345 342 342 354 352 349 348 345 343 338 330 330 313 302 311 312 316 311 296 295 298 296 301 299 298 300 294 297 303 303 303 304
356 357 357 357 357 357 355 354 352 350 349 347 346 345 346 353 353 344 346 355 357 348 347 342 340 343 352 347 345 344 338 338 338 327 317 310 319 319 318 312 297 297 299 297 296 303 298 294 295 301 305 303 301 301
355 355 356 356 356 356 356 354 351 348 348 348 349 357 356 356 355 355 360 358 357 348 344 344 341 342 359 351 349 346 344 336 338 330 319 310 314 320 318 314 302 297 299 290 292 298 302 306 304 304 306 307 305 300
354 355 356 356 356 357 357 356 355 353 351 359 358 359 357 0 5 2 357 355 1 4 359 350 356 346 351 350 350 347 347 338 334 337 333 320 313 325 321 321 311 299 299 300 299 299 303 299 303 305 306 308 308 306
353 355 356 356 357 358 358 358 358 1 5 3 360 359 358 2 358 358 359 2 7 4 7 3 1 356 1 353 350 350 341 338 335 338 333 334 323 320 317 320 322 319 317 315 312 310 310 307 306 307 311 314 310 312
354 355 355 356 359 358 358 359 1 4 3 358 358 359 1 2 4 5 7 11 12 7 9 5 4 1 360 1 2 357 348 343 333 338 335 331 333 328 325 322 324 326 325 325 326 324 324 323 322 321 321 316 315 318
354 354 354 357 358 356 357 356 356 356 356 360 2 1 3 6 2 3 3 8 6 7 8 6 3 4 9 10 6 2 352 341 343 336 333 334 334 330 327 326 327 330 332 331 330 329 327 326 326 326 322 319 319 321
352 353 354 360 355 355 355 355 354 357 360 359 358 354 1 3 7 9 4 1 3 2 4 6 4 6 7 8 5 358 354 351 339 336 335 338 335 331 329 330 331 330 333 334 333 332 331 330 329 329 327 325 324 323
351 352 357 356 352 353 353 352 353 360 2 358 2 359 5 7 6 2 0 357 1 3 6 3 3 7 6 7 6 358 354 347 343 339 340 338 336 334 331 329 329 328 328 329 330 330 331 330 330 331 331 330 328 324
351 354 358 352 352 354 353 355 3 6 7 6 8 4 3 360 2 1 359 3 353 354 357 0 2 2 6 10 5 360 350 343 342 344 347 344 338 338 335 334 333 331 329 328 327 326 327 327 327 326 327 328 330 329
353 355 351 352 354 355 360 3 5 9 10 12 11 12 4 0 359 359 359 357 350 354 353 356 357 359 1 357 355 348 342 339 344 347 346 345 340 339 339 340 338 336 333 330 329 328 326 325 326 326 324 324 327 327
352 351 353 355 356 358 5 10 12 12 9 10 6 3 6 3 358 358 355 353 352 349 344 341 342 340 338 336 336 337 334 335 338 339 341 342 341 340 339 337 338 339 338 336 333 330 327 325 324 322 322 322 322 323
349 353 354 355 359 4 3 11 13 7 9 9 8 5 5 5 7 3 357 355 359 354 352 346 339 333 330 330 328 327 328 328 328 331 340 344 342 338 337 336 335 333 332 333 334 333 330 329 326 323 320 320 319 319
353 357 354 359 3 3 7 9 16 13 8 7 8 5 7 6 5 3 358 358 2 358 350 344 341 341 338 337 336 333 334 337 332 330 331 337 337 335 334 333 331 330 329 328 328 330 329 327 327 324 321 321 319 317
356 355 359 2 6 12 13 14 16 16 12 10 11 8 7 8 5 2 0 3 4 359 354 355 352 348 339 336 334 333 335 336 334 333 331 329 333 333 332 331 329 329 327 327 326 325 326 325 324 324 323 320 319 317
354 358 2 6 9 12 17 18 15 12 10 8 7 5 3 2 1 1 7 5 7 5 5 3 358 352 347 342 339 339 337 336 336 335 333 332 330 329 328 328 327 326 327 326 325 323 323 323 324 325 323 320 320 317
359 3 6 5 6 8 9 13 9 9 5 3 3 2 2 0 1 8 5 8 9 8 8 3 357 353 349 348 345 342 340 337 335 333 332 331 331 331 329 328 328 326 324 325 326 324 324 324 323 322 321 320 318 316
5 3 2 4 5 2 8 5 7 5 4 1 358 356 359 359 2 3 358 3 5 5 3 360 357 351 350 349 344 343 343 341 339 338 338 336 333 332 332 331 331 331 330 329 328 327 326 324 323 322 320 318 316 314
355 357 1 1 4 0 360 0 360 1 357 356 356 358 359 0 355 355 355 2 6 7 6 4 359 355 351 348 346 346 347 344 338 335 338 339 337 334 334 334 333 332 332 329 327 325 324 323 321 319 317 315 313 311
349 359 359 356 356 357 359 355 357 355 355 356 359 360 359 356 354 353 359 8 8 8 6 0 353 349 349 348 344 343 342 342 339 337 339 340 337 335 332 330 329 330 334 331 327 323 321 321 320 317 314 314 311 309
350 352 356 3 2 2 360 1 1 358 356 356 356 355 356 352 352 358 8 11 12 13 9 5 358 349 345 343 346 345 343 342 341 338 337 339 340 340 337 333 330 332 332 328 326 325 322 320 318 316 314 315 314 312
355 354 349 355 357 359 356 355 355 355 356 360 357 354 353 353 353 7 12 21 20 20 14 7 1 355 350 348 346 344 342 342 340 343 344 343 344 341 340 338 335 331 330 329 327 326 325 323 321 319 317 316 316 317
351 356 356 353 354 356 356 355 355 358 360 359 355 355 355 2 8 13 23 24 22 11 1 355 352 350 350 348 347 347 345 346 344 341 339 338 337 339 342 337 334 333 332 331 329 327 327 326 325 323 321 319 318 317
350 358 352 352 349 349 355 359 359 3 7 6 5 5 7 10 16 21 22 17 5 358 355 353 351 348 343 344 344 345 348 350 351 347 342 340 340 341 339 337 336 336 336 335 335 334 333 331 329 328 326 324 324 323
357 354 352 352 351 357 0 4 6 6 5 5 7 5 6 7 12 15 12 7 2 358 353 351 350 350 346 347 347 345 344 353 354 351 348 346 346 345 345 344 342 342 343 343 343 341 339 338 338 337 336 334 333 331
350 350 351 348 352 358 0 358 358 358 360 0 1 4 5 4 1 7 13 12 3 358 357 354 351 348 352 353 353 354 354 355 357 356 353 352 350 348 343 344 351 356 358 356 356 354 355 355 355 355 354 352 349 346
352 354 354 354 353 353 355 356 355 353 356 355 357 0 2 2 0 8 15 17 10 1 355 355 355 357 358 359 0 2 5 7 5 1 356 353 352 350 352 358 10 16 12 6 2 0 354 350 347 352 352 351 351 351